GW1771 Weather Reports


time (UTC)temp
C
wind
direction
speed
KPH
gust
KPH
rain 1hr
cm
rain 24hr
cm
rain mn
cm
humidity
%
barometer
mb
20260906184018 32 213 0.0 0.0 0.00 0.00 0.00 65 1012.4
20260906183515 31 77 0.0 0.0 0.00 0.00 0.00 67 1012.6
20260906183010 31 129 0.0 0.0 0.00 0.00 0.00 68 1012.6
20260906182505 31 194 0.0 0.0 0.00 0.00 0.00 69 1013.1
20260906182001 31 168 0.0 0.0 0.00 0.00 0.00 69 1012.7
20260906181456 31 82 0.0 0.0 0.00 0.00 0.00 71 1013.0
20260906180952 30 80 0.0 0.0 0.00 0.00 0.00 73 1012.8
20260906180446 30 80 0.0 0.0 0.00 0.00 0.00 71 1012.7
20260906175944 30 93 0.0 0.0 0.00 0.00 0.00 73 1013.0
20260906175439 30 95 0.0 0.0 0.00 0.00 0.00 72 1012.8
20260906174937 30 102 0.0 0.0 0.00 0.00 0.00 72 1013.2
20260906174432 30 86 0.0 0.0 0.00 0.00 0.00 72 1013.0
20260906173927 30 101 0.0 0.0 0.00 0.00 0.00 73 1013.0
20260906173422 30 123 0.0 0.0 0.00 0.00 0.00 74 1013.2
20260906172921 29 105 0.0 0.0 0.00 0.00 0.00 74 1013.1
20260906172418 29 86 0.0 0.0 0.00 0.00 0.00 76 1013.2
20260906171913 28 104 0.0 0.0 0.00 0.00 0.00 76 1013.2
20260906171407 28 91 0.0 0.0 0.00 0.00 0.00 77 1013.3
20260906170903 28 171 0.0 0.0 0.00 0.00 0.00 76 1013.6
20260906170359 29 124 0.0 0.0 0.00 0.00 0.00 75 1013.8
20260906165856 28 129 0.0 0.0 0.00 0.00 0.00 75 1013.5
20260906165355 29 183 0.0 0.0 0.00 0.00 0.00 75 1013.6
20260906164850 28 141 0.0 0.0 0.00 0.00 0.00 76 1013.7
20260906164349 28 113 0.0 0.0 0.00 0.00 0.00 76 1013.8
20260906163845 28 77 0.0 0.0 0.00 0.00 0.00 78 1013.5
20260906163341 28 174 0.0 0.0 0.00 0.00 0.00 79 1013.8
20260906162838 28 73 0.0 0.0 0.00 0.00 0.00 81 1014.0
20260906162337 27 74 0.0 0.0 0.00 0.00 0.00 82 1013.8
20260906161832 27 78 0.0 0.0 0.00 0.00 0.00 82 1013.9
20260906161332 27 72 0.0 0.0 0.00 0.00 0.00 83 1014.0
20260906160831 27 72 0.0 0.0 0.00 0.00 0.00 83 1014.1
20260906160325 27 72 0.0 0.0 0.00 0.00 0.00 84 1013.9
20260906155823 27 88 0.0 0.0 0.00 0.00 0.00 84 1014.0
20260906155317 27 72 0.0 0.0 0.00 0.00 0.00 85 1014.2
20260906154813 26 72 0.0 0.0 0.00 0.00 0.00 84 1014.2
20260906154302 26 64 0.0 0.0 0.00 0.00 0.00 84 1014.1
20260906153800 26 60 0.0 0.0 0.00 0.00 0.00 85 1013.8
20260906153254 26 60 0.0 0.0 0.00 0.00 0.00 85 1014.2
20260906152750 26 60 0.0 0.0 0.00 0.00 0.00 85 1014.3
20260906152245 26 59 0.0 0.0 0.00 0.00 0.00 85 1014.3
20260906151744 26 60 0.0 0.0 0.00 0.00 0.00 85 1014.4
20260906151240 26 76 0.0 0.0 0.00 0.00 0.00 86 1014.2
20260906150736 26 72 0.0 0.0 0.00 0.00 0.00 86 1014.4
20260906150231 26 71 0.0 0.0 0.00 0.00 0.00 86 1014.0
20260906145730 26 74 0.0 0.0 0.00 0.00 0.00 85 1013.6
20260906145229 26 80 0.0 0.0 0.00 0.00 0.00 84 1013.6
20260906144725 26 176 0.0 0.0 0.00 0.00 0.00 84 1013.7
20260906144219 26 73 0.0 0.0 0.00 0.00 0.00 83 1013.5
20260906143718 26 103 0.0 0.0 0.00 0.00 0.00 83 1013.5
20260906143216 26 90 0.0 0.0 0.00 0.00 0.00 83 1013.2
20260906142715 26 80 0.0 0.0 0.00 0.00 0.00 84 1013.5
20260906142211 26 86 0.0 0.0 0.00 0.00 0.00 84 1013.3
20260906141709 26 82 0.0 0.0 0.00 0.00 0.00 84 1013.3
20260906141204 26 96 0.0 0.0 0.00 0.00 0.00 84 1013.5
20260906140703 26 78 0.0 0.0 0.00 0.00 0.00 84 1013.5
20260906140159 26 73 0.0 0.0 0.00 0.00 0.00 85 1013.4
20260906135655 26 91 0.0 0.0 0.00 0.00 0.00 85 1013.6
20260906135152 26 108 0.0 0.0 0.00 0.00 0.00 86 1013.4
20260906134647 25 71 0.0 0.0 0.00 0.00 0.00 86 1013.4
20260906134142 25 76 0.0 0.0 0.00 0.00 0.00 86 1013.6
20260906133637 25 108 0.0 0.0 0.00 0.00 0.00 86 1013.5
20260906133132 25 75 0.0 0.0 0.00 0.00 0.00 86 1013.8
20260906132627 25 74 0.0 0.0 0.00 0.00 0.00 85 1013.7
20260906132123 25 77 0.0 0.0 0.00 0.00 0.00 85 1013.5
20260906131618 25 73 0.0 0.0 0.00 0.00 0.00 86 1013.6
20260906131113 25 80 0.0 0.0 0.00 0.00 0.00 86 1013.3
20260906130608 25 66 0.0 0.0 0.00 0.00 0.00 87 1013.5
20260906130104 25 65 0.0 0.0 0.00 0.00 0.00 87 1013.4
20260906125601 25 65 0.0 0.0 0.00 0.00 0.00 87 1013.5
20260906125059 25 65 0.0 0.0 0.00 0.00 0.00 87 1013.4
20260906124550 25 65 0.0 0.0 0.00 0.00 0.00 87 1013.3
20260906124045 24 65 0.0 0.0 0.00 0.00 0.00 88 1013.2
20260906123544 24 66 0.0 0.0 0.00 0.00 0.00 88 1013.2
20260906123039 24 64 0.0 0.0 0.00 0.00 0.00 88 1013.3
20260906122538 24 64 0.0 0.0 0.00 0.00 0.00 88 1013.1
20260906122035 24 64 0.0 0.0 0.00 0.00 0.00 88 1012.9
20260906121531 24 64 0.0 0.0 0.00 0.00 0.00 88 1012.7
20260906121027 24 64 0.0 0.0 0.00 0.00 0.00 88 1012.8
20260906120522 24 65 0.0 0.0 0.00 0.00 0.00 88 1012.8
20260906120020 24 65 0.0 0.0 0.00 0.00 0.00 88 1012.7
20260906115519 24 66 0.0 0.0 0.00 0.00 0.00 88 1012.7
20260906115014 24 67 0.0 0.0 0.00 0.00 0.00 89 1012.7
20260906114508 23 64 0.0 0.0 0.00 0.00 0.00 89 1012.4
20260906114004 23 64 0.0 0.0 0.00 0.00 0.00 89 1012.6
20260906113503 23 64 0.0 0.0 0.00 0.00 0.00 90 1012.7
20260906112958 23 64 0.0 0.0 0.00 0.00 0.00 90 1012.6
20260906112453 23 64 0.0 0.0 0.00 0.00 0.00 91 1012.5
20260906111949 23 64 0.0 0.0 0.00 0.00 0.00 91 1012.6
20260906111449 23 64 0.0 0.0 0.00 0.00 0.00 91 1012.6
20260906110944 23 64 0.0 0.0 0.00 0.00 0.00 91 1012.4
20260906110439 23 64 0.0 0.0 0.00 0.00 0.00 91 1012.6
20260906105938 23 64 0.0 0.0 0.00 0.00 0.00 91 1012.6
20260906105434 22 64 0.0 0.0 0.00 0.00 0.00 91 1012.5
20260906104930 22 64 0.0 0.0 0.00 0.00 0.00 91 1012.5
20260906104428 22 64 0.0 0.0 0.00 0.00 0.00 91 1012.8
20260906103928 22 64 0.0 0.0 0.00 0.00 0.00 91 1012.5
20260906103426 22 64 0.0 0.0 0.00 0.00 0.00 91 1012.4
20260906102921 23 64 0.0 0.0 0.00 0.00 0.00 91 1012.5
20260906102421 23 64 0.0 0.0 0.00 0.00 0.00 91 1012.2
20260906101915 23 64 0.0 0.0 0.00 0.00 0.00 91 1012.2
20260906101411 23 64 0.0 0.0 0.00 0.00 0.00 91 1012.2
20260906100907 23 64 0.0 0.0 0.00 0.00 0.00 91 1012.3
20260906100406 23 64 0.0 0.0 0.00 0.00 0.00 91 1012.3
20260906095900 23 64 0.0 0.0 0.00 0.00 0.00 91 1012.4
20260906095356 22 64 0.0 0.0 0.00 0.00 0.00 90 1012.0
20260906094850 22 64 0.0 0.0 0.00 0.00 0.00 90 1012.1
20260906094345 22 64 0.0 0.0 0.00 0.00 0.00 90 1012.1
20260906093841 23 64 0.0 0.0 0.00 0.00 0.00 90 1012.3
20260906093337 23 64 0.0 0.0 0.00 0.00 0.00 90 1012.0
20260906092832 23 64 0.0 0.0 0.00 0.00 0.00 90 1012.5
20260906092331 23 64 0.0 0.0 0.00 0.00 0.00 90 1012.0
20260906091827 23 64 0.0 0.0 0.00 0.00 0.00 89 1012.3
20260906091323 23 64 0.0 0.0 0.00 0.00 0.00 89 1012.5
20260906090820 23 64 0.0 0.0 0.00 0.00 0.00 89 1012.2
20260906090318 23 64 0.0 0.0 0.00 0.00 0.00 89 1012.3
20260906085818 23 65 0.0 0.0 0.00 0.00 0.00 88 1012.1
20260906085311 23 65 0.0 0.0 0.00 0.00 0.00 88 1012.3
20260906084807 23 65 0.0 0.0 0.00 0.00 0.00 88 1012.3
20260906084306 24 65 0.0 0.0 0.00 0.00 0.00 88 1012.1
20260906083801 24 66 0.0 0.0 0.00 0.00 0.00 87 1012.2
20260906083257 24 65 0.0 0.0 0.00 0.00 0.00 87 1012.1
20260906082751 24 65 0.0 0.0 0.00 0.00 0.00 87 1012.0
20260906082246 24 65 0.0 0.0 0.00 0.00 0.00 87 1012.2
20260906081742 24 65 0.0 0.0 0.00 0.00 0.00 87 1012.2
20260906081238 25 65 0.0 0.0 0.00 0.00 0.00 86 1012.0
20260906080734 25 65 0.0 0.0 0.00 0.00 0.00 86 1012.2
20260906080230 25 65 0.0 0.0 0.00 0.00 0.00 86 1012.2
20260906075723 25 66 0.0 0.0 0.00 0.00 0.00 86 1012.0
20260906075218 25 65 0.0 0.0 0.00 0.00 0.00 87 1012.1
20260906074713 25 65 0.0 0.0 0.00 0.00 0.00 86 1011.8
20260906074213 25 67 0.0 0.0 0.00 0.00 0.00 86 1012.1
20260906073707 25 66 0.0 0.0 0.00 0.00 0.00 86 1011.6
20260906073203 25 67 0.0 0.0 0.00 0.00 0.00 86 1011.8
20260906072658 25 74 0.0 0.0 0.00 0.00 0.00 87 1012.2
20260906072154 24 64 0.0 0.0 0.00 0.00 0.00 88 1012.0
20260906071650 24 64 0.0 0.0 0.00 0.00 0.00 88 1012.0
20260906071149 25 64 0.0 0.0 0.00 0.00 0.00 87 1012.1
20260906070646 25 64 0.0 0.0 0.00 0.00 0.00 87 1012.1
20260906070141 25 64 0.0 0.0 0.00 0.00 0.00 87 1012.3
20260906065641 25 65 0.0 0.0 0.00 0.00 0.00 87 1012.1
20260906065136 25 65 0.0 0.0 0.00 0.00 0.00 87 1012.1
20260906064632 25 65 0.0 0.0 0.00 0.00 0.00 86 1012.3
20260906064127 25 65 0.0 0.0 0.00 0.00 0.00 86 1012.4
20260906063622 25 65 0.0 0.0 0.00 0.00 0.00 85 1012.3
20260906063118 25 65 0.0 0.0 0.00 0.00 0.00 85 1012.5
20260906062613 26 65 0.0 0.0 0.00 0.00 0.00 84 1012.6
20260906062112 26 67 0.0 0.0 0.00 0.00 0.00 84 1012.1
20260906061609 26 66 0.0 0.0 0.00 0.00 0.00 84 1012.3
20260906061108 26 122 0.0 0.0 0.00 0.00 0.00 84 1012.4
20260906060605 26 65 0.0 0.0 0.00 0.00 0.00 84 1012.3
20260906055557 26 66 0.0 0.0 0.00 0.00 0.00 82 1012.3
20260906055053 26 67 0.0 0.0 0.00 0.00 0.00 82 1012.4
20260906054552 26 65 0.0 0.0 0.00 0.00 0.00 82 1012.3
20260906054048 26 66 0.0 0.0 0.00 0.00 0.00 82 1012.3
20260906053544 26 92 0.0 0.0 0.00 0.00 0.00 82 1012.3
20260906053039 26 71 0.0 0.0 0.00 0.00 0.00 82 1012.2
20260906052535 27 72 0.0 0.0 0.00 0.00 0.00 82 1012.4
20260906052032 27 71 0.0 0.0 0.00 0.00 0.00 82 1012.4
20260906051527 27 52 0.0 0.0 0.00 0.00 0.00 82 1012.1
20260906051022 27 55 0.0 0.0 0.00 0.00 0.00 81 1012.2
20260906050518 27 64 0.0 0.0 0.00 0.00 0.00 81 1012.3
20260906050012 27 64 0.0 0.0 0.00 0.00 0.00 81 1012.2
20260906045510 27 64 0.0 0.0 0.00 0.00 0.00 81 1012.2
20260906045006 27 60 0.0 0.0 0.00 0.00 0.00 81 1012.1
20260906044502 27 69 0.0 0.0 0.00 0.00 0.00 81 1012.2
20260906043957 27 65 0.0 0.0 0.00 0.00 0.00 81 1012.2
20260906043453 27 64 0.0 0.0 0.00 0.00 0.00 80 1012.2
20260906042949 27 65 0.0 0.0 0.00 0.00 0.00 80 1012.2
20260906042448 27 45 0.0 0.0 0.00 0.00 0.00 81 1012.3
20260906041948 27 50 0.0 0.0 0.00 0.00 0.00 81 1012.5
20260906041444 27 57 0.0 0.0 0.00 0.00 0.00 81 1012.5
20260906040943 27 54 0.0 0.0 0.00 0.00 0.00 80 1012.3
20260906040438 27 56 0.0 0.0 0.00 0.00 0.00 80 1012.3
20260906035934 28 56 0.0 0.0 0.00 0.00 0.00 80 1012.3
20260906035429 28 48 0.0 0.0 0.00 0.00 0.00 79 1012.4
20260906034924 28 49 0.0 0.0 0.00 0.00 0.00 79 1012.4
20260906034419 28 48 0.0 0.0 0.00 0.00 0.00 80 1012.2
20260906033915 28 44 0.0 0.0 0.00 0.00 0.00 79 1012.2
20260906033415 28 43 0.0 0.0 0.00 0.00 0.00 80 1012.1
20260906032910 28 35 0.0 0.0 0.00 0.00 0.00 80 1011.8
20260906032407 28 36 0.0 0.0 0.00 0.00 0.00 80 1012.1
20260906031901 28 35 0.0 0.0 0.00 0.00 0.00 80 1012.2
20260906031356 28 38 0.0 0.0 0.00 0.00 0.00 80 1012.0
20260906030851 28 38 0.0 0.0 0.00 0.00 0.00 80 1012.0
20260906030346 28 39 0.0 0.0 0.00 0.00 0.00 79 1011.8
20260906025841 28 38 0.0 0.0 0.00 0.00 0.00 80 1011.7
20260906025335 28 38 0.0 0.0 0.00 0.00 0.00 80 1011.4
20260906024834 28 38 0.0 0.0 0.00 0.00 0.00 79 1011.6
20260906024333 28 38 0.0 0.0 0.00 0.00 0.00 79 1011.3
20260906023829 28 38 0.0 0.0 0.00 0.00 0.00 79 1011.4
20260906023325 28 38 0.0 0.0 0.00 0.00 0.00 79 1011.2
20260906022820 28 38 0.0 0.0 0.00 0.00 0.00 78 1010.9
20260906022315 28 38 0.0 0.0 0.00 0.00 0.00 78 1011.1
20260906021810 28 38 0.0 0.0 0.00 0.00 0.00 78 1011.2
20260906021309 28 35 0.0 0.0 0.00 0.00 0.00 78 1011.1
20260906020804 29 35 0.0 0.0 0.00 0.00 0.00 78 1011.0
20260906020258 29 35 0.0 0.0 0.00 0.00 0.00 77 1010.8
20260906015759 29 33 0.0 0.0 0.00 0.00 0.00 77 1010.6
20260906015257 29 41 0.0 0.0 0.00 0.00 0.00 78 1010.7
20260906014752 29 41 0.0 0.0 0.00 0.00 0.00 78 1010.6
20260906014247 30 43 0.0 0.0 0.00 0.00 0.00 77 1010.5
20260906013743 29 44 0.0 0.0 0.00 0.00 0.00 77 1010.6
20260906013243 30 45 0.0 0.0 0.00 0.00 0.00 77 1010.5
20260906012739 30 47 0.0 0.0 0.00 0.00 0.00 76 1010.4
20260906012233 30 45 0.0 0.0 0.00 0.00 0.00 76 1010.2
20260906011729 30 49 0.0 0.0 0.00 0.00 0.00 76 1010.1
20260906011223 30 45 0.0 0.0 0.00 0.00 0.00 75 1010.4
20260906010719 30 39 0.0 0.0 0.00 0.00 0.00 75 1010.2
20260906010215 30 35 0.0 0.0 0.00 0.00 0.00 75 1010.2
20260906005714 30 35 0.0 0.0 0.00 0.00 0.00 74 1010.1
20260906005209 31 35 0.0 0.0 0.00 0.00 0.00 74 1010.2
20260906004708 31 35 0.0 0.0 0.00 0.00 0.00 73 1010.0
20260906004203 31 56 1.6 1.6 0.00 0.00 0.00 73 1010.2
20260906003658 31 66 0.0 1.6 0.00 0.00 0.00 72 1010.1
20260906003154 31 66 0.0 0.0 0.00 0.00 0.00 71 1010.0
20260906002654 31 68 0.0 0.0 0.00 0.00 0.00 71 1010.0
20260906002148 31 97 1.6 3.2 0.00 0.00 0.00 70 1009.7
20260906001644 31 66 0.0 1.6 0.00 0.00 0.00 70 1009.9
20260906001143 31 68 0.0 0.0 0.00 0.00 0.00 69 1009.9
20260906000639 32 68 0.0 1.6 0.00 0.00 0.00 68 1010.0
20260906000135 32 75 0.0 0.0 0.00 0.00 0.00 68 1009.8
20260905235633 32 68 0.0 0.0 0.00 0.00 0.00 68 1010.1
20260905235129 32 76 3.2 4.8 0.00 0.00 0.00 68 1010.1
20260905234624 32 91 3.2 4.8 0.00 0.00 0.00 68 1010.1
20260905234119 32 70 0.0 1.6 0.00 0.00 0.00 67 1010.2
20260905233614 32 98 1.6 3.2 0.00 0.00 0.00 68 1010.0
20260905233108 32 66 1.6 1.6 0.00 0.00 0.00 69 1009.9
20260905232604 32 67 0.0 0.0 0.00 0.00 0.00 68 1010.1
20260905232100 32 64 1.6 3.2 0.00 0.00 0.00 68 1010.0
20260905231554 32 61 0.0 1.6 0.00 0.00 0.00 68 1009.9
20260905231051 32 62 0.0 1.6 0.00 0.00 0.00 67 1009.7
20260905230550 32 75 0.0 1.6 0.00 0.00 0.00 67 1009.8
20260905230048 32 70 0.0 1.6 0.00 0.00 0.00 66 1010.0
20260905225543 32 131 1.6 1.6 0.00 0.00 0.00 66 1010.0
20260905225038 32 83 1.6 3.2 0.00 0.00 0.00 64 1009.7
20260905224532 32 85 3.2 3.2 0.00 0.00 0.00 64 1010.0
20260905224032 32 83 0.0 1.6 0.00 0.00 0.00 65 1010.0
20260905223530 32 189 4.8 4.8 0.00 0.00 0.00 64 1009.8
20260905223025 32 82 1.6 1.6 0.00 0.00 0.00 64 1009.7
20260905222525 32 72 1.6 1.6 0.00 0.00 0.00 64 1009.9
20260905222020 32 104 4.8 4.8 0.00 0.00 0.00 64 1009.7
20260905221517 32 102 4.8 4.8 0.00 0.00 0.00 63 1009.6
20260905221012 32 61 1.6 1.6 0.00 0.00 0.00 63 1009.8
20260905220508 32 121 3.2 3.2 0.00 0.00 0.00 63 1009.8
20260905220004 32 127 4.8 8.0 0.00 0.00 0.00 63 1009.6
20260905215458 32 98 1.6 3.2 0.00 0.00 0.00 63 1009.8
20260905214954 32 100 8.0 16.1 0.00 0.00 0.00 62 1010.0
20260905214450 32 125 3.2 4.8 0.00 0.00 0.00 62 1009.9
20260905213950 32 128 6.4 8.0 0.00 0.00 0.00 62 1009.8
20260905213446 32 81 1.6 3.2 0.00 0.00 0.00 61 1009.9
20260905212941 32 159 1.6 3.2 0.00 0.00 0.00 61 1010.3
20260905212436 32 77 0.0 1.6 0.00 0.00 0.00 60 1010.2
20260905211935 32 120 4.8 4.8 0.00 0.00 0.00 60 1010.2
20260905211431 32 66 0.0 0.0 0.00 0.00 0.00 61 1010.4
20260905210927 32 96 3.2 3.2 0.00 0.00 0.00 61 1010.5
20260905210426 32 70 4.8 4.8 0.00 0.00 0.00 59 1010.3
20260905205926 32 73 1.6 1.6 0.00 0.00 0.00 59 1010.5
20260905205421 33 98 3.2 4.8 0.00 0.00 0.00 59 1010.7
20260905204920 33 51 1.6 3.2 0.00 0.00 0.00 59 1010.7
20260905204417 33 76 1.6 3.2 0.00 0.00 0.00 60 1010.7
20260905203915 32 27 0.0 1.6 0.00 0.00 0.00 61 1010.9
20260905203411 32 36 0.0 1.6 0.00 0.00 0.00 61 1010.9
20260905202906 32 68 0.0 1.6 0.00 0.00 0.00 60 1011.1
20260905202401 32 46 1.6 1.6 0.00 0.00 0.00 61 1011.3
20260905201856 32 60 3.2 4.8 0.00 0.00 0.00 59 1011.4
20260905201352 32 58 0.0 1.6 0.00 0.00 0.00 64 1011.6
20260905200846 32 74 1.6 1.6 0.00 0.00 0.00 63 1011.8
20260905200342 32 93 3.2 4.8 0.00 0.00 0.00 62 1011.8
20260905195840 32 68 0.0 1.6 0.00 0.00 0.00 61 1012.0
20260905195335 33 339 6.4 9.7 0.00 0.00 0.00 60 1011.8
20260905194830 32 60 0.0 0.0 0.00 0.00 0.00 63 1012.3
20260905194325 32 141 0.0 1.6 0.00 0.00 0.00 63 1012.2
20260905193824 32 77 3.2 4.8 0.00 0.00 0.00 63 1012.1
20260905193319 32 59 0.0 1.6 0.00 0.00 0.00 62 1012.3
20260905192815 32 69 1.6 1.6 0.00 0.00 0.00 63 1012.3
20260905192311 32 348 3.2 4.8 0.00 0.00 0.00 64 1012.1
20260905191810 32 98 3.2 3.2 0.00 0.00 0.00 63 1012.3
20260905191308 32 83 4.8 4.8 0.00 0.00 0.00 65 1012.4
20260905190807 32 69 4.8 12.9 0.00 0.00 0.00 64 1012.6
20260905190306 32 77 1.6 1.6 0.00 0.00 0.00 64 1012.6
20260905185800 32 49 6.4 11.3 0.00 0.00 0.00 64 1012.9
20260905185254 32 57 1.6 1.6 0.00 0.00 0.00 66 1012.9
20260905184748 32 39 3.2 3.2 0.00 0.00 0.00 65 1013.1